Home > Weather > Black Mountain > Past weeks

Flag for USA Past Weather in Black Mountain, North Carolina, USA — Yesterday and Last 2 Weeks

Now
83 °F

Sunny.


Feels Like: 85 °F
Forecast: 67 / 81 °F
Wind: 3 mph from North

Location: Asheville Regional Airport

Current Time: Jun 27, 2016 at 12:49:38 PM

Latest Report: Jun 27, 2016 at 11:54 AM


Visibility: 10 mi

Pressure: 30.08 "Hg (27.69 "Hg at 729m altitude)

Humidity: 55%

Dew Point: 65 °F

Location of Black MountainLocation

Past Weather in Black Mountain — Graph

°F

Black Mountain Temperature Yesterday

Maximum temperature yesterday: 85 °F (at 3:54 PM)
Minimum temperature yesterday: 68 °F (at 3:54 AM)
Average temperature yesterday: 76 °F

High & Low Weather Summary for the Past Weeks

 TemperatureHumidityPressure
High92 °F (Jun 23, 2:54 PM)96% (Jun 16, 3:04 AM)30.40 "Hg (Jun 16, 3:04 AM)
Low54 °F (Jun 20, 3:54 AM)26% (Jun 14, 2:54 PM)29.73 "Hg (Jun 17, 3:54 AM)
Average76 °F61%30.04 "Hg
* Reported Jun 12 11:54 AM — Jun 27 11:54 AM, Black Mountain, Weather by CustomWeather, © 2016

Note: Actual official high and low records may vary slightly from our data, if they occured in-between our weather recording intervals... More about our weather records

Advertising

Black Mountain Weather History for the Previous 24 Hours

Scroll right to see more
 ConditionsComfort  
Time TempWeatherWind HumidityBarometerVisibility
11:54 AM
Mon, Jun 27
83 °FSunny.3 mph55%30.08 "Hg10 mi
10:54 AM78 °FMostly cloudy.5 mph64%30.09 "Hg10 mi
9:54 AM77 °FOvercast.3 mph66%30.10 "Hg10 mi
8:54 AM76 °FSunny.No wind67%30.11 "Hg10 mi
7:54 AM72 °FSunny.No wind76%30.09 "Hg10 mi
6:54 AM69 °FPassing clouds.3 mph87%30.11 "Hg8 mi
5:54 AM69 °FPassing clouds.3 mph84%30.11 "Hg10 mi
4:54 AM70 °FOvercast.3 mph84%30.11 "Hg10 mi
3:54 AM70 °FPassing clouds.3 mph84%30.10 "Hg10 mi
2:54 AM71 °FPassing clouds.No wind81%30.11 "Hg10 mi
1:54 AM72 °FPassing clouds.No wind81%30.12 "Hg10 mi
12:54 AM73 °FPassing clouds.No wind76%30.12 "Hg10 mi
11:54 PM
Sun, Jun 26
75 °FPassing clouds.No wind71%30.13 "Hg10 mi
10:54 PM77 °FPassing clouds.No wind64%30.12 "Hg10 mi
9:54 PM78 °FPartly cloudy.No wind64%30.10 "Hg10 mi
8:54 PM79 °FOvercast.6 mph60%30.10 "Hg10 mi
7:54 PM82 °FOvercast.9 mph53%30.10 "Hg10 mi
6:54 PM83 °FScattered clouds.12 mph53%30.09 "Hg10 mi
5:54 PM84 °FSunny.8 mph51%30.09 "Hg10 mi
4:54 PM85 °FPassing clouds.10 mph50%30.09 "Hg10 mi
3:54 PM85 °FSunny.10 mph48%30.11 "Hg10 mi
2:54 PM84 °FPassing clouds.8 mph49%30.13 "Hg10 mi
1:54 PM82 °FPartly sunny.5 mph51%30.16 "Hg10 mi
12:54 PM81 °FPartly sunny.7 mph54%30.18 "Hg10 mi
Weather by CustomWeather, © 2016

See weather overviewHow to use our weather pages